KB0KQA Weather Reports


Display with metric or nautical units.
time (UTC)temp
F
wind
direction
speed
MPH
gust
MPH
rain 1hr
in
rain 24hr
in
rain mn
in
humidity
%
barometer
mb
20260504023208 60 223 3.0 7.0 0.00 0.00 0.00 40 997.2
20260504022209 61 202 0.0 2.0 0.00 0.00 0.00 40 997.4
20260504021208 61 201 1.0 6.0 0.00 0.00 0.00 39 997.6
20260504020229 61 208 2.0 6.0 0.00 0.00 0.00 39 997.8
20260504015208 61 209 2.0 6.0 0.00 0.00 0.00 39 998.0
20260504014208 62 203 1.0 7.0 0.00 0.00 0.00 38 998.2
20260504013208 63 232 2.0 5.0 0.00 0.00 0.00 36 998.5
20260504012209 64 219 2.0 6.0 0.00 0.00 0.00 35 998.7
20260504011208 64 232 2.0 8.0 0.00 0.00 0.00 34 998.8
20260504010248 65 214 3.0 8.0 0.00 0.00 0.00 33 999.1
20260504005208 66 248 2.0 8.0 0.00 0.00 0.00 33 999.4
20260504004208 66 239 1.0 7.0 0.00 0.00 0.00 33 999.6
20260504003248 66 227 1.0 6.0 0.00 0.00 0.00 32 999.8
20260504002229 66 242 2.0 6.0 0.00 0.00 0.00 32 999.9
20260504001208 66 265 4.0 12.0 0.00 0.00 0.00 31 1000.0
20260504000208 67 243 2.0 8.0 0.00 0.00 0.00 31 1000.2
20260503235208 67 254 2.0 5.0 0.00 0.00 0.00 30 1000.4
20260503234208 67 263 4.0 7.0 0.00 0.00 0.00 29 1000.7
20260503233208 67 220 2.0 11.0 0.00 0.00 0.00 30 1001.0
20260503232208 68 254 3.0 8.0 0.00 0.00 0.00 28 1001.2
20260503231209 68 278 2.0 5.0 0.00 0.00 0.00 28 1001.5
20260503230208 69 246 2.0 6.0 0.00 0.00 0.00 27 1001.8
20260503225208 68 264 2.0 6.0 0.00 0.00 0.00 28 1002.0
20260503224208 68 241 3.0 8.0 0.00 0.00 0.00 28 1002.1
20260503223208 68 307 2.0 5.0 0.00 0.00 0.00 28 1002.2
20260503222222 68 318 0.0 4.0 0.00 0.00 0.00 27 1002.4
20260503221220 70 239 3.0 9.0 0.00 0.00 0.00 24 1002.6
20260503220224 70 330 6.0 16.0 0.00 0.00 0.00 22 1002.8
20260503215208 70 17 1.0 6.0 0.00 0.00 0.00 24 1003.0
20260503214208 70 268 2.0 8.0 0.00 0.00 0.00 24 1003.2
20260503213222 69 275 3.0 7.0 0.00 0.00 0.00 24 1003.4
20260503212208 67 263 4.0 9.0 0.00 0.00 0.00 26 1003.7
20260503211211 68 267 4.0 10.0 0.00 0.00 0.00 26 1003.9
20260503210228 69 326 2.0 6.0 0.00 0.00 0.00 25 1004.1
20260503205228 70 319 4.0 10.0 0.00 0.00 0.00 25 1004.2
20260503204208 69 276 3.0 8.0 0.00 0.00 0.00 26 1004.3
20260503203208 69 248 6.0 10.0 0.00 0.00 0.00 26 1004.5
20260503202228 69 338 4.0 8.0 0.00 0.00 0.00 27 1004.6
20260503201208 69 357 3.0 7.0 0.00 0.00 0.00 25 1004.8
20260503200211 68 304 5.0 11.0 0.00 0.00 0.00 26 1005.0
20260503195212 68 329 3.0 6.0 0.00 0.00 0.00 27 1005.3
20260503194209 68 340 7.0 15.0 0.00 0.00 0.00 25 1005.4
20260503193209 68 275 3.0 7.0 0.00 0.00 0.00 27 1005.6
20260503192209 67 330 7.0 19.0 0.00 0.00 0.00 26 1005.9
20260503191208 67 331 3.0 7.0 0.00 0.00 0.00 26 1006.2
20260503190229 67 316 4.0 8.0 0.00 0.00 0.00 28 1006.3
20260503185248 66 323 3.0 10.0 0.00 0.00 0.00 29 1006.5
20260503184209 66 359 4.0 6.0 0.00 0.00 0.00 28 1006.8
20260503183211 66 317 2.0 7.0 0.00 0.00 0.00 28 1007.0
20260503182210 65 336 7.0 11.0 0.00 0.00 0.00 28 1007.0
20260503181209 65 328 3.0 8.0 0.00 0.00 0.00 28 1007.4
20260503180210 65 302 5.0 9.0 0.00 0.00 0.00 28 1007.4
20260503175213 64 7 1.0 3.0 0.00 0.00 0.00 31 1007.6
20260503174231 64 286 5.0 13.0 0.00 0.00 0.00 31 1007.9
20260503173229 64 316 5.0 9.0 0.00 0.00 0.00 31 1008.0
20260503172229 63 332 5.0 11.0 0.00 0.00 0.00 33 1008.2
20260503171208 63 305 4.0 10.0 0.00 0.00 0.00 32 1008.4
20260503170208 63 310 3.0 15.0 0.00 0.00 0.00 34 1008.6
20260503160208 58 341 6.0 14.0 0.00 0.00 0.00 35 1009.0
20260503150229 55 9 6.0 13.0 0.00 0.00 0.00 38 1009.0
20260503140208 51 5 9.0 17.0 0.00 0.00 0.00 46 1009.1
20260503131209 48 1 2.0 7.0 0.00 0.00 0.00 56 1008.9
20260503130208 48 6 6.0 10.0 0.00 0.00 0.00 58 1008.8
20260503120208 43 358 1.0 5.0 0.00 0.00 0.00 73 1008.1
20260503110248 42 351 4.0 7.0 0.00 0.00 0.00 82 1007.8
20260503100208 40 0.0 0.0 0.00 0.00 0.00 95 1007.2
20260503090208 38 0.0 0.0 0.00 0.00 0.00 100 1007.2
20260503081208 40 0.0 0.0 0.00 0.00 0.00 100 1007.1
20260503080208 39 0.0 0.0 0.00 0.00 0.00 99 1007.0
20260503072207 40 0.0 0.0 0.00 0.00 0.00 95 1007.0
20260503071208 41 0.0 0.0 0.00 0.00 0.00 94 1007.1
20260503070228 41 0.0 0.0 0.00 0.00 0.00 93 1007.2
20260503060228 46 0.0 0.0 0.00 0.00 0.00 83 1007.6
20260503054207 48 0.0 0.0 0.00 0.00 0.00 81 1007.5
20260503053208 49 0.0 0.0 0.00 0.00 0.00 79 1007.6
20260503052208 50 0.0 0.0 0.00 0.00 0.00 78 1007.7
20260503051208 50 0.0 0.0 0.00 0.00 0.00 78 1007.7
20260503050208 50 0.0 0.0 0.00 0.00 0.00 77 1007.6
20260503045208 51 0.0 0.0 0.00 0.00 0.00 75 1007.8
20260503044208 51 0.0 0.0 0.00 0.00 0.00 73 1007.6
20260503043208 52 0.0 0.0 0.00 0.00 0.00 71 1007.5
20260503042208 52 0.0 0.0 0.00 0.00 0.00 68 1007.5
20260503041228 52 53 1.0 5.0 0.00 0.00 0.00 65 1007.4
20260503040209 52 0.0 0.0 0.00 0.00 0.00 63 1007.5
20260503035208 52 0.0 0.0 0.00 0.00 0.00 65 1007.6
20260503034209 52 0.0 0.0 0.00 0.00 0.00 67 1007.3
20260503033228 52 0.0 0.0 0.00 0.00 0.00 66 1007.3
20260503032249 52 0.0 0.0 0.00 0.00 0.00 66 1007.3
20260503031209 53 0.0 0.0 0.00 0.00 0.00 67 1007.2
20260503030249 53 0.0 0.0 0.00 0.00 0.00 63 1007.4
20260503025208 53 0.0 0.0 0.00 0.00 0.00 62 1007.2
20260503024209 54 0.0 0.0 0.00 0.00 0.00 61 1006.9